#timestamp,LO_Frequency,Hit,StdDev 
1658869215.2,286046999.0,P
1658869235.1,286046998.4,P
1658869236.0,286046998.4,Y
1658869255.8,286047000.6,P
1658869275.6,286047000.0,N
1658869295.5,286047000.9,N
1658869315.3,286047000.5,N
1658869335.2,286047000.5,N
1658869355.9,286046999.9,N
1658869375.7,286047002.8,Y
1658869395.6,286047000.8,P
1658869415.4,286047000.6,N
1658869435.2,286047001.1,P
1658869455.1,286047000.8,N
1658869456.0,286047000.8,N
1658869475.8,286047000.7,N
1658869495.7,286047001.2,Y
1658869515.5,286046998.8,P
1658869535.3,286047001.1,N
1658869555.2,286047000.8,N
1658869575.0,286047000.7,N
1658869575.9,286047000.7,N
1658869595.8,286046999.8,N
1658869615.6,286047000.1,N
1658869635.4,286047000.2,N
1658869655.3,286047000.4,N
1658869675.1,286047000.4,N
1658869695.8,286047000.5,N
1658869715.7,286047001.1,N
1658869735.5,286047000.6,N
1658869755.4,286047000.7,N
1658869775.2,286047000.4,N
1658869795.0,286047000.3,N
1658869795.9,286047000.3,N
1658869815.8,286047000.7,N
1658869835.6,286046998.5,Y
1658869855.4,286046998.6,P
1658869875.3,286046998.7,N
1658869895.1,286046998.8,N
1658869915.9,286046996.9,Y
1658869935.7,286046998.1,P
1658869955.5,286047001.2,N
1658869975.4,286046998.5,N
1658869995.2,286047001.1,N
1658870015.1,286046998.3,N
1658870016.0,286046998.3,N
1658870035.8,286046998.4,N
1658870055.6,286047000.7,N
1658870075.5,286047001.1,N
1658870095.3,286046998.3,N
1658870115.1,286047001.2,N
1658870135.9,286046998.5,N
1658870155.7,286046999.3,N
1658870175.6,286046998.7,N
1658870195.4,286046998.7,N
1658870215.2,286046998.6,N
1658870235.1,286046999.0,N
1658870236.0,286046999.0,N
1658870255.8,286046998.9,N
1658870275.6,286046998.5,N
1658870295.5,286046998.9,N
1658870315.3,286046998.2,N
1658870335.2,286046998.7,N
1658870355.9,286046998.8,N
1658870375.7,286046998.6,N
1658870395.6,286046998.3,N
1658870415.4,286046998.7,N
1658870435.3,286046998.7,N
1658870455.1,286046998.3,N
1658870475.8,286046998.3,N
1658870495.8,286046998.7,N
1658870515.6,286046998.7,N
1658870535.5,286046998.4,N
1658870555.3,286046998.2,N
1658870575.1,286046998.4,N
1658870595.9,286046998.8,N
1658870615.7,286046998.3,N
1658870635.5,286046998.3,N
1658870655.4,286046999.2,N
1658870675.2,286046998.8,N
1658870695.1,286046998.3,Y
1658870696.0,286046998.3,P
1658870715.8,286046998.5,P
1658870735.6,286046998.9,P
1658870755.5,286046998.2,Y
1658870775.3,286047001.3,P
1658870795.1,286047001.5,N
1658870815.9,286047004.4,P
1658870835.7,286047001.4,N
1658870855.6,286047002.3,N
1658870875.4,286047002.0,N
1658870895.2,286047001.5,N
1658870915.1,286047001.7,N
1658870916.0,286047001.7,N
1658870935.8,286047001.8,N
1658870955.7,286047002.1,N
1658870975.5,286047004.4,Y
1658870995.3,286047001.0,P
1658871015.2,286046998.1,P
1658871035.0,286047000.5,N
1658871035.9,286047000.5,N
1658871055.8,286047000.4,N
1658871075.6,286047000.1,N
1658871095.4,286047002.7,N
1658871115.3,286047002.4,N
1658871135.1,286047002.7,N
1658871155.8,286046999.7,N
1658871175.7,286046999.8,N
1658871195.5,286047000.1,N
1658871215.3,286046999.7,N
1658871235.2,286047002.2,N
1658871255.0,286047002.1,N
1658871255.9,286047002.1,N
1658871275.8,286047002.8,N
1658871295.6,286046999.8,N
1658871315.4,286047002.8,N
1658871335.3,286047000.5,N
1658871355.1,286047000.3,N
1658871375.9,286047000.6,N
1658871395.7,286047000.1,N
1658871415.5,286047000.2,N
1658871435.4,286047000.0,N
1658871455.2,286047002.1,N
1658871475.0,286047001.9,N
1658871476.0,286047001.9,N
1658871495.8,286047003.9,Y
1658871515.6,286047002.4,P
1658871535.5,286047000.4,N
1658871555.3,286047000.5,N
1658871575.1,286047000.8,N
1658871595.9,286047000.6,N
1658871615.7,286047000.6,N
1658871635.6,286047001.0,N
1658871655.4,286046998.2,Y
1658871675.2,286046998.6,P
1658871695.1,286046998.9,N
1658871696.0,286046998.9,N
1658871715.8,286047000.5,N
1658871735.7,286047000.7,N
1658871755.5,286047001.1,N
1658871775.3,286046998.3,N
1658871795.2,286046998.9,N
1658871815.0,286046998.8,N
1658871815.9,286046998.8,N
1658871835.7,286046998.3,N
1658871855.6,286046999.2,N
1658871875.4,286046998.3,N
1658871895.3,286046998.9,N
1658871915.1,286046998.7,N
1658871916.0,286046998.7,N
1658871935.8,286046998.8,N
1658871955.7,286046998.4,N
1658871975.5,286046998.5,N
1658871995.3,286046998.5,N
1658872015.2,286046999.1,N
1658872035.0,286046998.3,N
1658872035.9,286046998.3,N
1658872055.8,286046998.6,N
1658872075.6,286046999.6,N
1658872095.4,286046998.7,N
1658872115.3,286046999.0,N
1658872135.1,286046998.4,N
1658872155.8,286046998.9,N
1658872175.7,286046999.5,N
1658872195.5,286046998.6,N
1658872215.4,286046998.3,N
1658872235.2,286046998.6,N
1658872255.0,286046998.6,N
1658872255.9,286046998.6,N
1658872275.8,286046998.6,N
1658872295.6,286047001.1,Y
1658872315.5,286046999.8,P
1658872335.3,286047002.7,P
1658872355.1,286047002.4,N
1658872375.9,286047002.1,N
1658872395.7,286047000.0,N
1658872415.5,286047002.2,N
1658872435.4,286047002.1,N
1658872455.2,286047002.3,N
1658872475.1,286047002.0,N
1658872476.0,286047002.0,N
1658872495.8,286047002.0,N
1658872515.6,286047001.7,N
1658872535.5,286047001.5,N
1658872555.3,286047002.3,N
1658872575.2,286047001.7,N
1658872595.9,286047001.7,N
1658872615.7,286047001.8,N
1658872635.6,286047004.0,Y
1658872655.4,286047002.2,P
1658872675.2,286047002.8,P
1658872695.1,286047000.2,N
1658872696.0,286047000.2,N
1658872715.8,286046999.7,N
1658872735.7,286047002.3,N
1658872755.5,286047001.4,N
1658872775.3,286047004.2,Y
1658872795.2,286046999.8,P
